Lincoln, NE

9:22 AM CST on November 13, 2019 (GMT -0600)
Lincoln Municipal

Weather History for KLNK - October, 2019

Change the Weather History Date:

Friday, October 18, 2019

  Actual Average Record
Temperature  
Mean Temperature 66 °F 52 °F  
Max Temperature 79 °F 65 °F 87 °F (1945)
Min Temperature 53 °F 40 °F 21 °F (1972)
Degree Days  
Heating Degree Days 0 13  
Month to date heating degree days 210 179  
Since 1 July heating degree days 218 277  
Cooling Degree Days 1 0  
Month to date cooling degree days 1 12  
Year to date cooling degree days 1332 1170  
Growing Degree Days 16 (Base 50)    
Moisture  
Dew Point 46 °F    
Average Humidity 53    
Maximum Humidity 71    
Minimum Humidity 35    
Precipitation  
Precipitation T in 0.06 in 1.27 in (1971)
Month to date precipitation 4.50 1.23  
Year to date precipitation 32.56 25.83  
Snow  
Snow 0.00 in 0.00 in 0.40 in (1976)
Month to date snowfall 0.0 0.2  
Since 1 July snowfall 0.0 0.2  
Since 1 September snowfall 0.0 0.2  
Snow Depth 0.00 in    
Sea Level Pressure  
Sea Level Pressure 29.59 in    
Wind  
Wind Speed 18 mph (South)    
Max Wind Speed 38 mph    
Max Gust Speed 55 mph    
Visibility 10 miles    
Events      
T = Trace of Precipitation, MM = Missing Value Source: NWS Daily Summary

Daily Weather History Graph

Daily Weather History Graph

Search for Another Location

Airport or City:

Astronomy

Oct. 18, 2019 Rise Set
Actual Time 7:41 AM CDT 6:42 PM CDT
Civil Twilight 7:13 AM CDT 7:10 PM CDT
Nautical Twilight 6:41 AM CDT 7:41 PM CDT
Astronomical Twilight 6:10 AM CDT 8:13 PM CDT
Moon 9:58 PM CDT (10/18) 12:17 PM CDT (10/18)
Length of Visible Light 11h 56m
Length of Day
11h 00m
Waning Gibbous, 78% of the Moon is Illuminated
Oct 18
Waning Gibbous
Oct 21
Last Quarter
Oct 27
New
Nov 4
First Quarter
Nov 12
Full

Hourly Weather History & Observations

Time (CDT) Temp. Dew Point Humidity Pressure Visibility Wind Dir Wind Speed Gust Speed Precip Events Conditions
12:54 AM 55.0 °F 45.0 °F 69% 29.73 in 10.0 mi SSE 11.5 mph - N/A   Clear
1:54 AM 55.0 °F 44.1 °F 67% 29.72 in 10.0 mi SSE 11.5 mph - N/A   Clear
2:54 AM 54.0 °F 44.1 °F 69% 29.70 in 10.0 mi South 10.4 mph - N/A   Clear
3:54 AM 54.0 °F 44.1 °F 69% 29.68 in 10.0 mi SSE 12.7 mph - N/A   Clear
4:54 AM 54.0 °F 44.1 °F 69% 29.66 in 10.0 mi South 12.7 mph - N/A   Clear
5:54 AM 53.1 °F 43.0 °F 69% 29.64 in 10.0 mi South 15.0 mph - N/A   Clear
6:54 AM 54.0 °F 43.0 °F 66% 29.63 in 10.0 mi SSE 19.6 mph 25.3 mph N/A   Clear
7:54 AM 54.0 °F 42.1 °F 64% 29.61 in 10.0 mi South 19.6 mph 27.6 mph N/A   Clear
8:54 AM 55.9 °F 42.1 °F 60% 29.61 in 10.0 mi South 20.7 mph - N/A   Clear
9:54 AM 61.0 °F 42.1 °F 50% 29.58 in 10.0 mi South 25.3 mph 33.4 mph N/A   Clear
10:54 AM 66.0 °F 44.1 °F 45% 29.54 in 10.0 mi South 24.2 mph 41.4 mph N/A   Clear
11:54 AM 72.0 °F 46.0 °F 40% 29.50 in 10.0 mi South 34.5 mph 48.3 mph N/A   Clear
12:54 PM 75.0 °F 48.0 °F 38% 29.47 in 10.0 mi South 34.5 mph 47.2 mph N/A   Clear
1:54 PM 77.0 °F 48.9 °F 37% 29.45 in 10.0 mi SSW 33.4 mph 47.2 mph N/A   Clear
2:54 PM 78.1 °F 48.9 °F 36% 29.46 in 10.0 mi South 31.1 mph 42.6 mph N/A   Clear
3:54 PM 79.0 °F 48.0 °F 34% 29.47 in 10.0 mi South 24.2 mph 41.4 mph N/A   Clear
4:54 PM 78.1 °F 48.0 °F 35% 29.49 in 10.0 mi South 21.9 mph 34.5 mph N/A   Clear
5:54 PM 75.0 °F 48.9 °F 40% 29.52 in 10.0 mi South 13.8 mph 26.5 mph N/A   Clear
6:54 PM 70.0 °F 48.9 °F 47% 29.55 in 10.0 mi South 13.8 mph - N/A   Clear
7:54 PM 64.9 °F 50.0 °F 58% 29.58 in 10.0 mi South 10.4 mph - N/A   Scattered Clouds
8:54 PM 69.1 °F 48.9 °F 49% 29.63 in 10.0 mi SW 8.1 mph 17.3 mph N/A   Overcast
9:54 PM 64.9 °F 43.0 °F 45% 29.65 in 10.0 mi NNW 9.2 mph - N/A   Overcast
10:54 PM 63.0 °F 44.1 °F 50% 29.67 in 10.0 mi NNE 10.4 mph - N/A   Overcast
11:54 PM 59.0 °F 45.0 °F 60% 29.69 in 10.0 mi NNE 5.8 mph - N/A   Overcast